Regional Weather Roundup
Issued by NWS

Home | Current Version | Previous Version | Text Only | Print | Product List | Glossary Off
Versions: 1 2 3 4 5 6 7 8 9 10 11 12 13 14 15 16 17 18 19 20 21 22 23 24 25 26 27 28 29 30 31 32 33 34 35 36 37 38 39 40 41 42 43 44 45 46 47 48 49 50

000
ASUS45 KBOU 270207
RWRCO

WEATHER ROUNDUP FOR COLORADO
NATIONAL WEATHER SERVICE DENVER/BOULDER CO
800 PM MDT TUE AUG 26 2014

NOTE: "FAIR" INDICATES FEW OR NO CLOUDS BELOW 12000 FEET WITH NO
SIGNIFICANT WEATHER AND/OR OBSTRUCTIONS TO VISIBILITY.

COZ001>005-013-030-031-270300-
...NORTHWEST COLORADO...

CITY           SKY/WX    TMP DP  RH WIND       PRES   REMARKS
CRAIG          MOCLDY    63  48  58 NE7       30.23R
HAYDEN         MOCLDY    59  45  58 E6        30.26S
MEEKER         MOCLDY    63  52  67 N3        30.24S
MOUNT WERNER   NOT AVBL
STEAMBOAT SPGS MOCLDY    57  50  77 CALM      30.28S
WALDEN         MOCLDY    54  41  62 SE6       30.37R
$$

COZ006>008-011-270300-
...WEST CENTRAL VALLEYS...

CITY           SKY/WX    TMP DP  RH WIND       PRES   REMARKS
GRAND JUNCTION LGT RAIN  62  56  80 CALM      30.19R
MONTROSE       LGT RAIN  62  56  80 SE16      30.26R
EAGLE          CLOUDY    63  52  67 E9        30.30R
RIFLE          MOCLDY    65  55  70 E3        30.19F
DELTA          RAIN      69  54  58 SE3       30.21R
NUCLA          RAIN      57  54  88 S8        30.33R
$$

COZ017>023-064>068-270300-
...SOUTHWEST COLORADO...

CITY           SKY/WX    TMP DP  RH WIND       PRES   REMARKS
DURANGO        LGT RAIN  63  50  62 S23G41    30.26R
CORTEZ         CLOUDY    59  52  77 NW12G18   30.28R
PAGOSA SPRINGS CLOUDY    63  43  48 CALM      30.32S
TELLURIDE      RAIN      50  50 100 SE5       30.45R
WOLF CREEK PAS MOCLDY    43  39  87 SW12      30.58R
$$

COZ009-010-012-014-032>034-037-058>063-270300-
...CENTRAL COLORADO...

CITY           SKY/WX    TMP DP  RH WIND       PRES   REMARKS
ASPEN          LGT RAIN  57  49  74 SE8       30.34F
BUENA VISTA    CLOUDY    55  48  79 NE3       30.38S THUNDER
COPPER MTN     LGT RAIN  45  39  81 NE7       30.62F
BERTHOUD PASS  SNOW      34  32  93 SE9       30.67S VSB 1/2 WCI  26
COTTONWOOD PAS CLOUDY    52  46  82 NE3       30.48R
GUNNISON       CLOUDY    55  48  76 NE6       30.36S
KREMMLING      MOCLDY    54  46  76 E3        30.37S
LEADVILLE      LGT RAIN  47  44  90 NW8       30.47R
MONARCH PASS   MIX PCPN  43  41  93 E10       30.69F VSB<1/4
SALIDA         CLOUDY    58  53  84 W5        30.42S
SUNLIGHT       CLOUDY    46  41  81 CALM      30.53S THUNDER
WILKERSON PASS NOT AVBL
$$

COZ069>075-270300-
...SAN LUIS VALLEY/SANGRE DE CRISTO MOUNTAINS...

CITY           SKY/WX    TMP DP  RH WIND       PRES   REMARKS
ALAMOSA        CLOUDY    56  51  84 SE6       30.34S
LA VETA PASS   NOT AVBL
SAGUACHE       CLOUDY    55  50  82 SE6       30.39R
$$

COZ035-036-038>040-270300-
...NORTHERN COLORADO FRONT RANGE...

CITY           SKY/WX    TMP DP  RH WIND       PRES   REMARKS
DENVER INTL AP CLOUDY    67  58  72 NW3       30.22R
DMNS CITY PARK   N/A     65  58  78 W10       30.24R
AURORA         CLOUDY    65  58  79 SW2       30.25R
FRONT RANGE AP NOT AVBL
ERIE MUNI ARPT LGT RAIN  67  55  65 SW9       30.21S
BOULDER MUN AP LGT RAIN  61  55  82 W14G21    30.23R
CENTENNIAL     CLOUDY    66  53  63 NW3       30.26R
BROOMFIELD     CLOUDY    63  54  72 W14       30.25R
FORT COLLINS   CLOUDY    68  55  64 S9        30.19R
LONGMONT       LGT RAIN  67  53  60 W13       30.22R
$$

COZ041-046-047-076>085-087-088-270300-
...PIKES PEAK/PALMER DIVIDE AND SOUTHERN FOOTHILLS...

CITY           SKY/WX    TMP DP  RH WIND       PRES   REMARKS
COLO. SPRINGS  CLOUDY    65  56  72 SE9       30.26S
A. F. ACADEMY  CLOUDY    63  55  74 N7        30.28S
ELLICOTT       CLOUDY    64  59  83 SE7       30.25R
FALCON         CLOUDY    62  56  79 CALM      30.32R
FORT CARSON    CLOUDY    67  57  71 SE9       30.23S
LIMON          CLOUDY    68  59  73 S5        30.21S
MONUMENT HILL  CLOUDY    59  52  77 NW3       30.32R
TRINIDAD       CLOUDY    64  59  83 S9        30.25R
$$

COZ042>045-048>051-090-091-270300-
...NORTHEAST COLORADO...

CITY           SKY/WX    TMP DP  RH WIND       PRES   REMARKS
GREELEY ARPT   CLOUDY    70  55  60 SW6       30.17R
AKRON          CLOUDY    70  62  76 S9        30.17S
BURLINGTON     CLOUDY    66  60  81 S23G36    30.19R THUNDER
WRAY             N/A     74  63  66 E5        30.12R
STERLING       CLOUDY    73  68  83 SE5       30.12F
HOLYOKE        MOCLDY    72  64  78 E7        30.14S
FORT MORGAN    CLOUDY    64  57  78 SE9G18    30.15R
$$

COZ086-089-092>099-270300-
...SOUTHEAST COLORADO...

CITY           SKY/WX    TMP DP  RH WIND       PRES   REMARKS
PUEBLO         CLOUDY    71  55  56 SE10      30.16R
LA JUNTA       CLOUDY    66  63  90 S6        30.16R
LAMAR          LGT RAIN  67  65  93 SW8       30.14S
SPRINGFIELD      N/A     66  63  90 SW7       30.19R
$$


USA.gov is the U.S. government's official web portal to all federal, state and local government web resources and services.